This demonstration page uses our WeatherBlox Daily Observations layout. Learn more.

Left ArrowRight Arrow

39.92423, -83.80882

Hourly Observations for February 12, 2016

Temp ( °F °C ) Dew Point ( °F °C ) Humidity (%) Winds ( mph kmh ) Pressure ( in mb ) Visibility ( mi km ) Precip ( " mm )
12:56 am 00:56 Clear 5 -15 1 -17.2 83 83 S 3 6 30.32 1027 10 16 N/A
1:56 am 01:56 Clear 4 -15.5 1 -17.2 87 87 SSE 3 6 30.30 1026 10 16 N/A
2:56 am 02:56 Clear 5 -15 1 -17.2 83 83 SSE 3 6 30.29 1026 10 16 N/A
3:56 am 03:56 Clear 3 -16.1 N/A 88 88 ESE 3 6 30.27 1025 10 16 N/A
4:56 am 04:56 Mostly Cloudy 7 -13.8 4 -15.5 87 87 SE 3 6 30.24 1024 10 16 N/A
5:56 am 05:56 Mostly Cloudy 12 -11.1 7 -13.8 81 81 S 3 6 30.24 1024 10 16 N/A
6:56 am 06:56 Cloudy 14 -10 6 -14.4 71 71 S 6 9 30.23 1024 10 16 N/A
7:56 am 07:56 Cloudy 14 -10 5 -15 67 67 SSE 5 7 30.22 1023 10 16 N/A
8:56 am 08:56 Cloudy 16 -8.8 7 -13.8 67 67 S 6 9 30.21 1023 10 16 N/A
9:56 am 09:56 Mostly Cloudy 19 -7.2 8 -13.3 62 62 S 7 11 30.20 1023 10 16 N/A
10:56 am 10:56 Cloudy 21 -6.1 10 -12.2 62 62 SW 12 19 30.19 1022 10 16 N/A
11:56 am 11:56 Cloudy 23 -5 11 -11.6 60 60 WSW 12 19 30.16 1021 10 16 N/A
12:56 pm 12:56 Cloudy 24 -4.4 13 -10.5 63 63 WSW 10 17 30.14 1021 10 16 N/A
1:56 pm 13:56 Cloudy 24 -4.4 13 -10.5 63 63 WSW 17 28 30.11 1020 10 16 N/A
2:56 pm 14:56 Cloudy 25 -3.8 14 -10 62 62 W 16 26 30.09 1019 10 16 N/A
3:56 pm 15:56 Cloudy 25 -3.8 14 -10 62 62 W 17 28 30.09 1019 10 16 N/A
4:56 pm 16:56 Cloudy with Light Snow 25 -3.8 16 -8.8 69 69 W 18 30 30.11 1020 10 16 N/A
5:14 pm 17:14 Cloudy with Light Snow 25 -4 18 -8 74 74 W 14 22 30.15 1021 10 16 N/A
5:37 pm 17:37 Mostly Cloudy with Light Snow 23 -5 18 -8 80 80 W 17 28 30.15 1021 4 6 N/A
5:56 pm 17:56 Mostly Cloudy with Light Snow 23 -5 18 -7.7 82 82 W 18 30 30.11 1020 10 16 N/A
6:09 pm 18:09 Mostly Cloudy with Light Snow 23 -5 19 -7 86 86 W 15 24 30.15 1021 3 5 N/A
6:35 pm 18:35 Windy with Snow Likely 23 -5 18 -8 80 80 W 22 35 30.18 1022 1 2 N/A
6:37 pm 18:37 Cloudy with Snow 23 -5 19 -7 86 86 W 24 39 30.18 1022 1 1 N/A
6:40 pm 18:40 Windy with Snow Likely 21 -6 19 -7 93 93 W 25 41 30.18 1022 0 0 N/A
6:48 pm 18:48 Windy with Snow Likely 21 -6 18 -8 86 86 W 20 31 30.18 1022 1 1 N/A
6:56 pm 18:56 Cloudy with Light Snow 21 -6.1 17 -8.3 85 85 W 18 30 30.16 1021 2 3 N/A
7:07 pm 19:07 Windy with Snow Likely 21 -6 16 -9 80 80 W 24 39 30.21 1023 1 2 N/A
7:18 pm 19:18 Cloudy with Light Snow 19 -7 14 -10 79 79 W 18 30 30.21 1023 2 2 N/A
7:22 pm 19:22 Mostly Cloudy with Light Snow 19 -7 14 -10 79 79 W 16 26 30.21 1023 4 6 N/A
7:35 pm 19:35 Mostly Cloudy with Light Snow 19 -7 14 -10 79 79 W 14 22 30.21 1023 7 11 N/A
7:56 pm 19:56 Mostly Cloudy 18 -7.7 13 -10.5 81 81 W 20 31 30.20 1023 10 16 N/A
8:03 pm 20:03 Mostly Clear 18 -8 10 -12 73 73 W 18 30 30.24 1024 10 16 N/A
8:56 pm 20:56 Mostly Cloudy 18 -7.7 8 -13.3 65 65 W 14 22 30.23 1024 10 16 N/A
9:56 pm 21:56 Clear 16 -8.8 7 -13.8 67 67 W 16 26 30.25 1024 10 16 N/A
10:56 pm 22:56 Mostly Clear 15 -9.4 7 -13.8 71 71 WNW 12 19 30.28 1025 10 16 N/A
11:10 pm 23:10 Mostly Cloudy 16 -9 9 -13 73 73 WNW 10 17 30.36 1028 10 16 N/A
11:34 pm 23:34 Mostly Cloudy with Light Snow 16 -9 9 -13 73 73 W 14 22 30.36 1028 3 4 N/A
11:47 pm 23:47 Mostly Cloudy with Light Snow 14 -10 10 -12 85 85 WNW 10 17 30.36 1028 5 8 N/A
11:56 pm 23:56 Mostly Cloudy with Light Snow 14 -10 10 -12.2 84 84 W 12 19 30.30 1026 10 16 N/A

Powered by AerisWeather